Simultaneous Nadir Overpasses (SNOs) Predictions

Prediction of SNOs between AQUA and NOAA-19 Satellite Orbit:

Table of predicted SNOs for the next 14.0 days since TLE Epoch: 1/23/2015
Index Date (AQUA) Time (AQUA) Lat,Lon (AQUA) SZA (AQUA ) Date (NOAA-19) Time (NOAA-19) Lat,Lon (NOAA-19) SZA (NOAA-19 ) Distance(km) Time Diff (sec)
1 01/24/2015 04:26:10 79.47, 86.81 100.01 01/24/2015 04:24:59 79.47, 86.77 100.04 0.74 71
2 01/24/2015 05:15:31 -79.27,-104.24 80.29 01/24/2015 05:15:50 -79.28,-104.34 80.28 2.26 19
3 01/26/2015 09:59:53 -79.38,-176.06 80.65 01/26/2015 09:59:26 -79.39,-176.16 80.62 2.18 27
4 01/26/2015 10:49:14 79.15, -6.92 99.01 01/26/2015 10:50:25 79.15, -6.97 99.00 1.15 71
5 01/28/2015 14:44:15 -79.51, 112.01 81.02 01/28/2015 14:43:02 -79.51, 111.97 80.99 0.80 73
6 01/28/2015 15:33:35 79.24, -78.58 98.59 01/28/2015 15:34:00 79.24, -78.47 98.56 2.61 25
7 01/30/2015 20:17:57 79.39,-150.61 98.22 01/30/2015 20:17:37 79.38,-150.57 98.22 0.96 20
8 01/30/2015 21:07:18 -79.19, 18.36 82.09 01/30/2015 21:08:27 -79.19, 18.33 82.11 0.59 69
9 02/02/2015 01:02:18 79.51, 137.51 97.78 02/02/2015 01:01:13 79.51, 137.52 97.81 0.37 65
10 02/02/2015 01:51:40 -79.34, -53.73 82.47 02/02/2015 01:52:04 -79.35, -53.86 82.46 2.63 24
11 02/04/2015 06:35:59 -79.40,-125.17 83.03 02/04/2015 06:35:37 -79.39,-125.03 83.04 3.22 22
12 02/06/2015 11:20:20 -79.54, 162.76 83.47 02/06/2015 11:19:14 -79.55, 162.65 83.43 2.44 66




NCC Satellite Simultaneous Nadir Overpasses (SNOs) Prediction Service
